Tracking 31027 objects as of 19-Jul-2025
HD Live streaming from Space Station
objects crossing your sky now

CZ-3C DEB

Track CZ-3C DEB now!


NORAD ID: 40835
Int'l Code: 2010-057BC
Perigee: 646.7 km
Apogee: 36,512.5 km
Inclination: 19.8 °
Period: 653.7 minutes
Semi major axis: 24950 km
RCS: Unknown
Launch date: October 31, 2010
Source: People's Republic of China (PRC)
Launch site: Xichang Space Center, China (XSC)

Note: This is SATELLITE DEBRIS
Your satellite tracking list
IRIDIUM 135
Track 1 satellite(s)




NASA's NSSDC Master Catalog

Two Line Element Set (TLE):
1 40835U 10057BC  25196.61502595 -.00000023  00000-0 -33180-3 0  9994
2 40835  19.7675 231.5927 7187348 286.7887  10.6668  2.20282590  4944
Source of the keplerian elements: AFSPC